Time_in_sec,Mx,My,Mz
1326901178.37255645,-0.75939345,0.43666658,-0.69908679
1326901178.42533588,-0.75967962,0.43584424,-0.69972575
1326901178.47358561,-0.76004738,0.43738791,-0.69925308
1326901178.52148223,-0.75934654,0.43416548,-0.69856322
1326901178.57348800,-0.75778681,0.43820298,-0.69989169
1326901178.62564635,-0.75902456,0.43690282,-0.69932020
1326901178.67250347,-0.75893015,0.43667051,-0.69994277
1326901178.72148395,-0.76007783,0.43570924,-0.69773263
1326901178.77364969,-0.75819308,0.43821120,-0.70029134
1326901178.82153511,-0.75837153,0.43630031,-0.69915479
1326901178.87252617,-0.75885808,0.43558875,-0.69879854
1326901178.92462993,-0.75888926,0.43595070,-0.69930619
1326901178.97351098,-0.75847381,0.43760216,-0.69854021
1326901179.02508187,-0.75825578,0.43509153,-0.69725215
1326901179.07284427,-0.75881070,0.43688515,-0.69779819
1326901179.12377286,-0.75908244,0.43700945,-0.69806552
1326901179.17365432,-0.75835001,0.43724561,-0.69865686
1326901179.22156215,-0.75877875,0.43545496,-0.69740885
1326901179.27350020,-0.75885350,0.43691632,-0.70082140
1326901179.32566285,-0.75919574,0.43593991,-0.69793826
1326901179.37350798,-0.75844103,0.43605316,-0.69814992
1326901179.42556977,-0.75865209,0.43664065,-0.69728446
1326901179.47365427,-0.75796771,0.43759799,-0.69863862
1326901179.52151108,-0.75879472,0.43567231,-0.69539750
1326901179.57405376,-0.75968820,0.43795899,-0.69734979
1326901179.62478757,-0.75895065,0.43653271,-0.69805503
1326901179.66552138,-0.75834739,0.43688908,-0.69865417
1326901179.72458220,-0.75950289,0.43125141,-0.70396316
1326901179.77356291,-0.75884110,0.43617886,-0.69842416
1326901179.82551503,-0.75750619,0.43686721,-0.69734997
1326901179.87352943,-0.75889534,0.43675953,-0.69704676
1326901179.92554474,-0.75931877,0.43522826,-0.69793987
1326901179.97433662,-0.75844455,0.43652853,-0.69815350
1326901180.02479076,-0.75903273,0.43507817,-0.69515443
1326901180.07353806,-0.75850767,0.43734822,-0.69690406
1326901180.12187481,-0.75852370,0.43758863,-0.69715834
1326901180.17350602,-0.75883830,0.43674868,-0.69603670
1326901180.22469187,-0.75959587,0.43509322,-0.69606602
1326901180.27252316,-0.75772166,0.43804890,-0.69648892
1326901180.32485461,-0.75888014,0.43661496,-0.69452769
1326901180.37257385,-0.75923944,0.43509451,-0.69655019
1326901180.42563081,-0.75910205,0.43675283,-0.69617689
1326901180.47251797,-0.75840336,0.43768439,-0.69501287
1326901180.52451825,-0.76010638,0.43471920,-0.69382554
1326901180.57350397,-0.75742781,0.43685228,-0.69596112
1326901180.62152839,-0.75888729,0.43661630,-0.69465399
1326901180.67251229,-0.75761133,0.43660378,-0.69471073
1326901180.72359014,-0.75897205,0.43554133,-0.69402170
1326901180.77392197,-0.75807709,0.43887815,-0.69588464
1326901180.82454228,-0.75777000,0.43587586,-0.69307804
1326901180.87356734,-0.75827503,0.43768302,-0.69500595
1326901180.92454886,-0.75822884,0.43625012,-0.69436407
1326901180.97352195,-0.75737262,0.43612972,-0.69507205
1326901181.02536798,-0.75965542,0.43541452,-0.69254744
1326901181.07359052,-0.75824749,0.43684706,-0.69462097
1326901181.12148762,-0.75826460,0.43528450,-0.69284886
1326901181.17297792,-0.75807565,0.43576932,-0.69397479
1326901181.22535658,-0.75957006,0.43447191,-0.69341719
1326901181.27360988,-0.75617748,0.43836439,-0.69401628
1326901181.32861972,-0.75836509,0.43634868,-0.69223249
1326901181.37350774,-0.75822437,0.43660530,-0.69424045
1326901181.42121649,-0.75729495,0.43718302,-0.69356495
1326901181.47300887,-0.75784564,0.43646061,-0.69207937
1326901181.52148604,-0.75794202,0.43503183,-0.69169694
1326901181.57326269,-0.75662661,0.43740833,-0.69302696
1326901181.62454343,-0.75740743,0.43504524,-0.69355601
1326901181.67263174,-0.75767809,0.43694949,-0.69358402
1326901181.72565198,-0.76062226,0.43508127,-0.69385600
1326901181.77350640,-0.75740016,0.43696567,-0.69545698
1326901181.82109237,-0.75811654,0.43646610,-0.69234574
1326901181.87267566,-0.75842482,0.43671605,-0.69324517
1326901181.92560768,-0.75864327,0.43540615,-0.69274437
1326901181.97254205,-0.75867343,0.43659863,-0.69313198
1326901182.02110434,-0.75857019,0.43515489,-0.69148004
1326901182.07352662,-0.75744462,0.43718848,-0.69395065
1326901182.12565041,-0.75817895,0.43624064,-0.69348025
1326901182.17351627,-0.75910383,0.43601808,-0.69403219
1326901182.22450900,-0.75922400,0.43682560,-0.69152719
1326901182.27353883,-0.75784034,0.43671998,-0.69422048
1326901182.32550144,-0.75905657,0.43636510,-0.69315106
1326901182.37354350,-0.75863767,0.43756425,-0.69464713
1326901182.42564368,-0.75764948,0.43789345,-0.69295985
1326901182.47354674,-0.75786805,0.43563414,-0.69257820
1326901182.52498865,-0.75889450,0.43564525,-0.69263375
1326901182.57350779,-0.75784743,0.43672132,-0.69434673
1326901182.62451053,-0.75753903,0.43742076,-0.69332808
1326901182.67294979,-0.75789380,0.43623242,-0.69296134
1326901182.72284794,-0.75881433,0.43541569,-0.69350886
1326901182.77357674,-0.75775391,0.43660790,-0.69497019
1326901182.82464457,-0.75964272,0.43757129,-0.69432396
1326901182.87349844,-0.75858700,0.43648654,-0.69388163
1326901182.92453146,-0.75806314,0.43600428,-0.69372410
1326901182.97350693,-0.75890666,0.43828145,-0.69479257
1326901183.02549911,-0.75887579,0.43602073,-0.69452327
1326901183.07254219,-0.75635678,0.43659535,-0.69514626
1326901183.12551761,-0.75962329,0.43687856,-0.69633180
1326901183.17391062,-0.75850493,0.43794107,-0.69678223
1326901183.22564173,-0.75899518,0.43578309,-0.69440222
1326901183.27386236,-0.75886405,0.43734697,-0.69641989
1326901183.32473326,-0.75760776,0.43710083,-0.69685364
1326901183.37352371,-0.75784659,0.43662554,-0.69661152
1326901183.42454743,-0.75818980,0.43581405,-0.69826055
1326901183.47263598,-0.75821817,0.43676886,-0.69864637
1326901183.52668571,-0.75810432,0.43484840,-0.69686466
1326901183.57254982,-0.75754815,0.43675649,-0.69810659
1326901183.62463522,-0.75792307,0.43830153,-0.69776016
1326901183.67256403,-0.75809878,0.43700650,-0.69876742
1326901183.72462583,-0.75950235,0.43497980,-0.69668949
1326901183.77360988,-0.75886935,0.43808305,-0.69869083
1326901183.82151151,-0.75928473,0.43640852,-0.69719118
1326901183.87250495,-0.75807017,0.43697804,-0.69599676
1326901183.92419195,-0.75934982,0.43653959,-0.69832838
1326901183.97253442,-0.75724947,0.43781379,-0.69721687
1326901184.02551389,-0.75734681,0.43553144,-0.69468886
1326901184.07349658,-0.75888908,0.43687701,-0.69692135
1326901184.12551880,-0.75829011,0.43877697,-0.69740576
1326901184.17350626,-0.75630790,0.43577835,-0.69664818
1326901184.22451663,-0.75913411,0.43626121,-0.69453895
1326901184.27264786,-0.75908941,0.43793717,-0.69580692
1326901184.32151484,-0.75738311,0.43755582,-0.69508266
1326901184.37258840,-0.75698680,0.43600672,-0.69505030
1326901184.42555833,-0.75893897,0.43686348,-0.69553953
1326901184.47252321,-0.75937277,0.43770769,-0.69632405
1326901184.52511764,-0.75889188,0.43528873,-0.69263113
1326901184.57351422,-0.75788850,0.43649179,-0.69510251
1326901184.62122488,-0.75821537,0.43731564,-0.69399327
1326901184.67252731,-0.75756854,0.43659565,-0.69395322
1326901184.72148085,-0.75835633,0.43516025,-0.69222367
1326901184.77250338,-0.75815296,0.43756413,-0.69512433
1326901184.82510257,-0.75827348,0.43552354,-0.69297689
1326901184.87254286,-0.75851214,0.43697003,-0.69476205
1326901184.92549348,-0.75649846,0.43645757,-0.69313920
1326901184.97352457,-0.75830537,0.43695372,-0.69336629
1326901185.02547669,-0.75907093,0.43541846,-0.69352275
1326901185.07248855,-0.75782424,0.43745199,-0.69611269
1326901185.12443280,-0.75747228,0.43707505,-0.69445479
1326901185.17302418,-0.75874382,0.43649337,-0.69439363
1326901185.22455764,-0.75963211,0.43709457,-0.69419420
1326901185.27251291,-0.75774479,0.43826759,-0.69460380
1326901185.32566166,-0.75756055,0.43647546,-0.69382608
1326901185.37350440,-0.75736713,0.43731543,-0.69482839
1326901185.42489719,-0.75783581,0.43707514,-0.69409686
1326901185.47292137,-0.75842661,0.43697679,-0.69551259
1326901185.52357960,-0.75928843,0.43493906,-0.69290185
1326901185.57255816,-0.75757116,0.43695217,-0.69395584
1326901185.62563539,-0.75740099,0.43706149,-0.69319224
1326901185.67350483,-0.75796771,0.43660253,-0.69422656
1326901185.72484708,-0.75764531,0.43540049,-0.69319379
1326901185.77352095,-0.75672281,0.43790135,-0.69467181
1326901185.82566357,-0.75912613,0.43614098,-0.69441181
1326901185.87259459,-0.75867808,0.43531713,-0.69564039
1326901185.92549944,-0.75713557,0.43587029,-0.69316953
1326901185.97265196,-0.75879902,0.43721589,-0.69528270
1326901186.02552271,-0.75794911,0.43600559,-0.69396961
1326901186.07351494,-0.75869554,0.43767092,-0.69339240
1326901186.12573504,-0.75766295,0.43682793,-0.69333065
1326901186.17375565,-0.75879186,0.43721455,-0.69515646
1326901186.22457600,-0.75689685,0.43539622,-0.69353086
1326901186.27357721,-0.75709021,0.43552867,-0.69467497
1326901186.32153773,-0.75780106,0.43718719,-0.69346648
1326901186.37614608,-0.75709713,0.43742877,-0.69456285
1326901186.42462707,-0.75863618,0.43542781,-0.69488376
1326901186.47652936,-0.75882751,0.43722135,-0.69578773
1326901186.52457690,-0.75717926,0.43599728,-0.69392794
1326901186.57350636,-0.75751954,0.43672803,-0.69533592
1326901186.62454939,-0.75866091,0.43685663,-0.69514686
1326901186.67251706,-0.75868148,0.43674186,-0.69552475
1326901186.72550607,-0.75944978,0.43461376,-0.69580305
1326901186.77655911,-0.75698656,0.43790546,-0.69481194
1326901186.82541943,-0.75864029,0.43792078,-0.69464976
1326901186.87253857,-0.75674349,0.43683720,-0.69516885
1326901186.92157650,-0.75726545,0.43803117,-0.69520551
1326901186.97351861,-0.75817174,0.43721169,-0.69550049
1326901187.02540064,-0.75900847,0.43661633,-0.69453466
1326901187.07256651,-0.75809687,0.43769518,-0.69638085
1326901187.12148833,-0.75740814,0.43708590,-0.69558412
1326901187.17270136,-0.75912058,0.43829912,-0.69631457
1326901187.22142076,-0.75844097,0.43603012,-0.69588429
1326901187.27355289,-0.75768781,0.43827978,-0.69585937
1326901187.32556224,-0.75862432,0.43770343,-0.69666117
1326901187.37350631,-0.75800157,0.43734404,-0.69700253
1326901187.42639899,-0.75725484,0.43755442,-0.69507569
1326901187.47250509,-0.75919288,0.43748215,-0.69769722
1326901187.52268410,-0.75922334,0.43580347,-0.69617677
1326901187.57664251,-0.75796682,0.43745610,-0.69637215
1326901187.62157106,-0.75858706,0.43650958,-0.69614732
1326901187.67350483,-0.75852907,0.43735230,-0.69728285
1326901187.72554135,-0.75844634,0.43579379,-0.69600880
1326901187.77353883,-0.75781536,0.43721294,-0.69598466
1326901187.82113719,-0.75948435,0.43640044,-0.69619507
1326901187.87265873,-0.75673366,0.43745172,-0.69718641
1326901187.92579222,-0.75722736,0.43674150,-0.69695640
1326901187.97364998,-0.75836772,0.43770066,-0.69664723
1326901188.02556109,-0.75939715,0.43522015,-0.69706303
1326901188.07350421,-0.75688243,0.43733835,-0.69757122
1326901188.12566447,-0.75903976,0.43605193,-0.69742715
1326901188.17354202,-0.75809878,0.43700650,-0.69876742
1326901188.22562623,-0.75787085,0.43508738,-0.69723129
1326901188.27286148,-0.75884360,0.43748477,-0.69830763
1326901188.32664752,-0.75883394,0.43617752,-0.69829792
1326901188.37249327,-0.75718725,0.43711293,-0.69846714
1326901188.42564821,-0.75791174,0.43580720,-0.69786787
1326901188.47251773,-0.75870979,0.43866909,-0.69805700
1326901188.52487445,-0.75931078,0.43510807,-0.69781274
1326901188.57350254,-0.75803989,0.43773040,-0.69990206
1326901188.62558985,-0.75880980,0.43676630,-0.69779730
1326901188.67253065,-0.75829828,0.43797085,-0.69991773
1326901188.72484803,-0.75731921,0.43566790,-0.69645035
1326901188.77354741,-0.75786704,0.43748319,-0.69913584
1326901188.82486749,-0.75837862,0.43630168,-0.69928104
1326901188.87350559,-0.75596195,0.43817812,-0.69928938
1326901188.92567968,-0.75633281,0.43625778,-0.69703048
1326901188.97350216,-0.75768149,0.43936968,-0.69788045
1326901189.02556586,-0.75799370,0.43627447,-0.69699454
1326901189.07254267,-0.75771910,0.43771541,-0.69875187
1326901189.12551093,-0.75922054,0.43739179,-0.70046699
1326901189.17366481,-0.75719601,0.43832439,-0.70074165
1326901189.22484255,-0.75734687,0.43555447,-0.69695449
1326901189.27353883,-0.75725579,0.43771935,-0.69960785
1326901189.32463288,-0.75771737,0.43747771,-0.69875014
1326901189.37353539,-0.75706691,0.43723175,-0.69858736
1326901189.42458463,-0.75757933,0.43714148,-0.70087987
1326901189.47261548,-0.75769138,0.43880123,-0.70039421
1326901189.52156520,-0.75793505,0.43509960,-0.69836760
1326901189.57254481,-0.75724328,0.43795434,-0.69935715
1326901189.62174129,-0.75774771,0.43677145,-0.69937611
1326901189.67357230,-0.75738573,0.43890780,-0.69949740
1326901189.72456264,-0.75756073,0.43557215,-0.69847649
1326901189.77351069,-0.75898886,0.43786845,-0.70083541
1326901189.82151771,-0.75861025,0.43677437,-0.69879347
1326901189.87264061,-0.75905848,0.43667191,-0.69994974
1326901189.92529202,-0.75882047,0.43726605,-0.70019275
1326901189.97250891,-0.75819850,0.43797490,-0.70041579
1326901190.02151299,-0.75683004,0.43602294,-0.69680399
1326901190.07783175,-0.75709981,0.43783137,-0.69909680
1326901190.12234211,-0.75778967,0.43666077,-0.70013273
1326901190.17362833,-0.75691462,0.43686977,-0.69819897
1326901190.22530937,-0.75801706,0.43461746,-0.69761348
1326901190.27273989,-0.75773329,0.43869054,-0.70115083
1326901190.32151008,-0.75877959,0.43654624,-0.69955617
1326901190.37286735,-0.75795335,0.43856767,-0.70053256
1326901190.42116809,-0.75856125,0.43690675,-0.70017618
1326901190.47349644,-0.75693667,0.43891448,-0.70060587
1326901190.52152324,-0.75711977,0.43472660,-0.69756573
1326901190.57353330,-0.75892544,0.43892443,-0.69958079
1326901190.61358976,-0.75702870,0.43689147,-0.70021904
1326901190.67251587,-0.75901502,0.42792779,-0.70479441
1326901190.72148252,-0.76021618,0.43419281,-0.70037246
1326901190.77315760,-0.75786960,0.43881211,-0.70128495
1326901190.82116127,-0.75849807,0.43606400,-0.69915998
1326901190.86567664,-0.75830728,0.43726051,-0.70016497
1326901190.92463088,-0.75697869,0.43111297,-0.70458078
1326901190.97350764,-0.75675595,0.43759769,-0.69983172
1326901191.02464867,-0.75877708,0.43524033,-0.69967270
1326901191.07263064,-0.75767100,0.43798965,-0.70240116
1326901191.11376786,-0.75752228,0.43713063,-0.69986987
1326901191.17365646,-0.75868696,0.42983323,-0.70554519
1326901191.22491741,-0.75825864,0.43454477,-0.70190525
1326901191.27251244,-0.75580245,0.43878722,-0.70092124
1326901191.32552934,-0.75718826,0.43630543,-0.70085287
1326901191.37350535,-0.75786877,0.43871632,-0.70354968
1326901191.41252327,-0.75805169,0.43645024,-0.70253676
1326901191.47252369,-0.75823522,0.42946035,-0.70438540
1326901191.53077245,-0.75801539,0.43442586,-0.70214295
1326901191.57294917,-0.75714368,0.43705508,-0.70450568
1326901191.61355257,-0.75692368,0.43620551,-0.70297748
1326901191.67353582,-0.75913793,0.42913792,-0.70682329
1326901191.72473383,-0.75897413,0.43394938,-0.70105875
1326901191.77350974,-0.75736272,0.43773970,-0.70150167
1326901191.82565069,-0.75869870,0.43527147,-0.70281518
1326901191.87276292,-0.75873590,0.43741471,-0.70320988
1326901191.92549157,-0.75687736,0.43572199,-0.70221639
1326901191.97277761,-0.75760865,0.43823817,-0.70353228
1326901192.02463484,-0.75859004,0.43503648,-0.70318526
1326901192.07261992,-0.75764692,0.43860149,-0.70416617
1326901192.12165880,-0.75959414,0.43587404,-0.70274198
1326901192.17350721,-0.75890160,0.43766055,-0.70384985
1326901192.22465849,-0.75794840,0.43597892,-0.70303130
1326901192.27268815,-0.75840253,0.43860710,-0.70395535
1326901192.32461309,-0.75875288,0.43682456,-0.70358419
1326901192.37351871,-0.75750524,0.43871623,-0.70390761
1326901192.42166877,-0.75783867,0.43655142,-0.70101565
1326901192.47351933,-0.75788391,0.43883786,-0.70380306
1326901192.52166796,-0.75798672,0.43536982,-0.70151877
1326901192.57350492,-0.75762302,0.43729150,-0.70390397
1326901192.62148595,-0.75833768,0.43657729,-0.70305657
1326901192.67352653,-0.75853431,0.43908384,-0.70396584
1326901192.72151279,-0.75788957,0.43573037,-0.70201951
1326901192.77258968,-0.75774223,0.43895259,-0.70354450
1326901192.82563686,-0.75951993,0.43740270,-0.70123839
1326901192.87353182,-0.75780296,0.43751705,-0.70253080
1326901192.92464256,-0.75831902,0.43598035,-0.70279962
1326901192.97351527,-0.75847828,0.43824247,-0.70307589
1326901193.02196050,-0.75781488,0.43429208,-0.70087260
1326901193.07665634,-0.75666040,0.43914530,-0.70021498
1326901193.12150502,-0.75804895,0.43704310,-0.70241493
1326901193.17321968,-0.75876617,0.43765780,-0.70371664
1326901193.22463393,-0.75820333,0.43477160,-0.70089698
1326901193.27353048,-0.75880969,0.43873417,-0.70435584
1326901193.32553506,-0.75837344,0.43563470,-0.70380700
1326901193.37353992,-0.75726551,0.43907270,-0.70414889
1326901193.42150140,-0.75824314,0.43729436,-0.70355994
1326901193.47253776,-0.75724238,0.43883094,-0.70376831
1326901193.52157140,-0.75789589,0.43464047,-0.69999844
1326901193.57263970,-0.75789917,0.43801004,-0.70417565
1326901193.62211227,-0.75807846,0.43621799,-0.70304000
1326901193.67350507,-0.75798655,0.43729159,-0.70354605
1326901193.72582936,-0.75867206,0.43455437,-0.70243114
1326901193.77361274,-0.75789016,0.43872038,-0.70392847
1326901193.82453918,-0.75901586,0.43576047,-0.70384264
1326901193.87364936,-0.75785285,0.43752655,-0.70341462
1326901193.92158031,-0.75769168,0.43694857,-0.70516384
1326901193.97355103,-0.75745887,0.43920514,-0.70529300
1326901194.02517748,-0.75875676,0.43445179,-0.70394528
1326901194.07350826,-0.75903171,0.43792266,-0.70612419
1326901194.12506080,-0.75682282,0.43801248,-0.70550191
1326901194.17353630,-0.75833589,0.43731201,-0.70520127
1326901194.22504544,-0.75901049,0.43599680,-0.70371819
1326901194.27254152,-0.75743145,0.43741980,-0.70502722
1326901194.32551503,-0.75753051,0.43634754,-0.70464748
1326901194.37292528,-0.75983888,0.43815240,-0.70453328
1326901194.42492723,-0.75857997,0.43754977,-0.70496440
1326901194.47280169,-0.75842577,0.43789947,-0.70445508
1326901194.52271986,-0.75988650,0.43493423,-0.70350635
1326901194.57350564,-0.75838375,0.43895954,-0.70357925
1326901194.61249399,-0.75766581,0.43729967,-0.70466149
1326901194.67279100,-0.76029366,0.42831987,-0.70700592
1326901194.72961307,-0.76016986,0.43470475,-0.70402348
1326901194.77254748,-0.75794280,0.43813702,-0.70493406
1326901194.82500100,-0.75855350,0.43491086,-0.70255309
1326901194.87251616,-0.75937903,0.43860868,-0.70312721
1326901194.92566514,-0.75906402,0.43550923,-0.70245904
1326901194.97350454,-0.75900662,0.43836954,-0.70335704
1326901195.02552176,-0.75907111,0.43551061,-0.70258528
1326901195.07252479,-0.75681919,0.43846345,-0.70311356
1326901195.12551308,-0.75784230,0.43607742,-0.70113838
1326901195.17350101,-0.75904846,0.43920824,-0.70399451
1326901195.22463012,-0.75927323,0.43680844,-0.70147264
1326901195.27350092,-0.75791788,0.43763456,-0.70228612
1326901195.32194877,-0.75920993,0.43693808,-0.70260286
1326901195.37264681,-0.75852275,0.43846524,-0.70156956
1326901195.42150640,-0.75732207,0.43512112,-0.70110351
1326901195.47413683,-0.75748122,0.43835562,-0.70352620
1326901195.52148151,-0.75830752,0.43536177,-0.70040333
1326901195.57305694,-0.75829470,0.43846789,-0.70206064
1326901195.62555242,-0.75835270,0.43762517,-0.70092511
1326901195.67356086,-0.75775295,0.43845692,-0.70152783
1326901195.72275496,-0.75768638,0.43618944,-0.70062727
1326901195.77350521,-0.75871611,0.43859768,-0.70271367
1326901195.82552505,-0.75886416,0.43741608,-0.70321679
1326901195.87500548,-0.75791889,0.43680403,-0.70240623
1326901195.92534566,-0.75875658,0.43537813,-0.70156050
1326901195.97258472,-0.75794816,0.43787766,-0.70279294
1326901196.02194977,-0.75892317,0.43574283,-0.70220137
1326901196.07351661,-0.75821900,0.43788317,-0.70305932
1326901196.12159872,-0.75851142,0.43694335,-0.70382369
1326901196.17370844,-0.75814873,0.43703905,-0.70191687
1326901196.22456074,-0.75777739,0.43502000,-0.70238602
1326901196.27352071,-0.75802571,0.43777376,-0.70418084
